Date String (YYYY-MM-DD hh:mm:ss) UTC,Instrument flags,absolute air pressure of the measurement (hPa),sample flow rate (lpm),inlet stack bypass flow (lpm),air temperature of the measurement (°C),ambient temperature measured by the external sensor (°C),aerosol sample conditioner tube jacket temperature (°C),OPC LED temperature (°C),internal box temperature (°C),relative humidity of the measurement (%),span deviation,mass concentration of particles derived from Lorenz-Mie calculation of OPC scattering (μg/m³),mass concentration of particles derived from Lorenz-Mie calculation of OPC scattering (μg/m³),mass concentration of particles derived from Lorenz-Mie calculation of OPC scattering (μg/m³)
DateTimeUTC,F1_M11,P_M11,Q1_M11,Q2_M11,T1_M11,T2_M11,T3_M11,T4_M11,T5_M11,U1_M11,ZSPAN_M11,X0_M11,X2_M11,X1_M11
2023-12-13 22:00:00,SystemResetWarning,0837.3,5.00,000.00,018.7,017.7,000.0,027.2,020.0,22.2,0000.5,0018.21,0015.54,0015.08
2023-12-13 22:01:00,SystemResetWarning,0837.3,5.00,000.00,018.7,017.7,000.0,027.2,020.0,22.3,0000.8,0018.18,0015.54,0015.08
2023-12-13 22:02:00,SystemResetWarning,0837.4,5.00,000.00,018.7,017.7,000.0,027.2,020.0,22.3,0000.3,0018.32,0015.55,0015.06
2023-12-13 22:03:00,SystemResetWarning,0837.4,5.00,000.00,018.7,017.6,000.0,027.2,020.0,22.3,0000.5,0018.42,0015.59,0015.08
2023-12-13 22:04:00,SystemResetWarning,0837.4,5.00,000.00,018.7,017.6,000.0,027.2,020.0,22.2,0000.3,0018.54,0015.66,0015.09
2023-12-13 22:05:00,SystemResetWarning,0837.4,5.00,000.00,018.7,017.6,000.0,027.2,020.0,22.1,0000.3,0018.36,0015.66,0015.08
2023-12-13 22:06:00,SystemResetWarning,0837.4,5.00,000.00,018.7,017.6,000.0,027.2,020.0,22.1,0000.2,0018.47,0015.68,0015.09
2023-12-13 22:07:00,SystemResetWarning,0837.4,5.00,000.00,018.7,017.6,000.0,027.2,020.0,22.1,0000.4,0018.56,0015.71,0015.11
2023-12-13 22:08:00,SystemResetWarning,0837.4,5.00,000.00,018.7,017.6,000.0,027.2,020.0,22.2,0000.3,0018.77,0015.75,0015.13
2023-12-13 22:09:00,SystemResetWarning,0837.4,5.00,000.00,018.7,017.6,000.0,027.2,020.0,22.2,0000.1,0018.81,0015.77,0015.13
2023-12-13 22:10:00,SystemResetWarning,0837.4,5.00,000.00,018.7,017.6,000.0,027.2,020.0,22.2,-000.0,0018.80,0015.78,0015.14
2023-12-13 22:11:00,SystemResetWarning,0837.4,5.00,000.00,018.7,017.7,000.0,027.2,020.0,22.3,0000.2,0019.24,0015.82,0015.15
2023-12-13 22:12:00,SystemResetWarning,0837.3,5.00,000.00,018.7,017.7,000.0,027.2,020.0,22.3,0000.1,0019.55,0015.82,0015.14
2023-12-13 22:13:00,SystemResetWarning,0837.3,5.00,000.00,018.7,017.7,000.0,027.2,020.0,22.3,0000.3,0019.33,0015.78,0015.14
2023-12-13 22:14:00,SystemResetWarning,0837.3,5.00,000.00,018.7,017.7,000.0,027.2,020.0,22.3,0000.1,0019.26,0015.76,0015.13
2023-12-13 22:15:00,SystemResetWarning,0837.3,5.00,000.00,018.7,017.7,000.0,027.2,020.0,22.3,0000.1,0018.88,0015.73,0015.14
2023-12-13 22:16:00,SystemResetWarning,0837.3,5.00,000.00,018.7,017.7,000.0,027.2,020.0,22.3,0000.2,0018.87,0015.72,0015.15
2023-12-13 22:17:00,SystemResetWarning,0837.2,5.00,000.00,018.7,017.7,000.0,027.2,020.0,22.3,0000.2,0018.91,0015.73,0015.17
2023-12-13 22:18:00,SystemResetWarning,0837.2,5.00,000.00,018.7,017.7,000.0,027.2,020.0,22.3,0000.2,0018.84,0015.74,0015.19
2023-12-13 22:19:00,SystemResetWarning,0837.2,5.00,000.00,018.7,017.7,000.0,027.2,020.0,22.5,0000.5,0018.78,0015.74,0015.20
2023-12-13 22:20:00,SystemResetWarning,0837.2,5.00,000.00,018.7,017.7,000.0,027.2,020.0,22.4,0000.7,0018.95,0015.79,0015.22
2023-12-13 22:21:00,SystemResetWarning,0837.2,5.00,000.00,018.7,017.7,000.0,027.2,020.0,22.2,0000.7,0019.38,0015.83,0015.24
2023-12-13 22:22:00,SystemResetWarning,0837.2,5.00,000.00,018.7,017.7,000.0,027.2,020.0,22.2,0000.7,0019.10,0015.86,0015.27
2023-12-13 22:23:00,SystemResetWarning,0837.2,5.00,000.00,018.7,017.7,000.0,027.2,020.0,22.2,0000.8,0018.86,0015.87,0015.28
2023-12-13 22:24:00,SystemResetWarning,0837.2,5.00,000.00,018.7,017.7,000.0,027.2,020.0,22.2,0001.0,0018.94,0015.89,0015.29
2023-12-13 22:25:00,SystemResetWarning,0837.2,5.00,000.00,018.7,017.7,000.0,027.2,020.0,22.1,0001.1,0018.91,0015.90,0015.30
2023-12-13 22:26:00,SystemResetWarning,0837.2,5.00,000.00,018.7,017.7,000.0,027.2,020.0,22.3,0000.9,0018.92,0015.90,0015.31
2023-12-13 22:27:00,SystemResetWarning,0837.2,5.00,000.00,018.7,017.7,000.0,027.2,020.0,22.4,0001.0,0019.03,0015.90,0015.31
2023-12-13 22:28:00,SystemResetWarning,0837.2,5.02,000.00,018.7,017.7,000.0,027.2,020.0,22.1,0001.0,0019.00,0015.87,0015.30
2023-12-13 22:29:00,SystemResetWarning,0837.2,5.00,000.00,018.7,017.7,000.0,027.2,020.0,22.1,0000.7,0019.11,0015.87,0015.28
2023-12-13 22:30:00,SystemResetWarning,0837.2,4.99,000.00,018.7,017.7,000.0,027.1,020.0,22.1,0000.5,0019.03,0015.85,0015.26
2023-12-13 22:31:00,SystemResetWarning,0837.2,4.99,000.00,018.7,017.7,000.0,027.2,020.0,22.1,0000.6,0018.96,0015.82,0015.24
2023-12-13 22:32:00,SystemResetWarning,0837.2,5.00,000.00,018.7,017.7,000.0,027.2,020.0,22.1,0000.6,0018.75,0015.81,0015.23
2023-12-13 22:33:00,SystemResetWarning,0837.2,5.00,000.00,018.7,017.7,000.0,027.1,020.0,22.2,0000.6,0018.76,0015.75,0015.19
2023-12-13 22:34:00,SystemResetWarning,0837.2,5.01,000.00,018.7,017.7,000.0,027.1,020.0,22.2,0000.5,0018.69,0015.72,0015.17
2023-12-13 22:35:00,SystemResetWarning,0837.2,5.00,000.00,018.7,017.7,000.0,027.1,020.0,22.3,0000.2,0018.65,0015.72,0015.16
2023-12-13 22:36:00,SystemResetWarning,0837.2,5.00,000.00,018.7,017.7,000.0,027.1,020.0,22.4,0000.2,0018.68,0015.72,0015.15
2023-12-13 22:37:00,SystemResetWarning,0837.2,5.00,000.00,018.7,017.7,000.0,027.1,020.0,22.2,0000.3,0018.62,0015.68,0015.13
2023-12-13 22:38:00,SystemResetWarning,0837.2,5.00,000.00,018.7,017.7,000.0,027.1,020.0,22.2,0000.4,0018.46,0015.62,0015.10
2023-12-13 22:39:00,SystemResetWarning,0837.2,5.00,000.00,018.7,017.7,000.0,027.1,020.0,22.3,0000.2,0018.41,0015.61,0015.09
2023-12-13 22:40:00,SystemResetWarning,0837.2,5.00,000.00,018.7,017.7,000.0,027.1,020.0,22.3,0000.4,0018.22,0015.56,0015.09
2023-12-13 22:41:00,SystemResetWarning,0837.2,5.00,000.00,018.7,017.7,000.0,027.1,020.0,22.4,0000.3,0018.19,0015.52,0015.09
2023-12-13 22:42:00,SystemResetWarning,0837.2,5.00,000.00,018.7,017.7,000.0,027.1,020.0,22.4,0000.1,0018.13,0015.50,0015.08
2023-12-13 22:43:00,SystemResetWarning,0837.2,5.00,000.00,018.7,017.7,000.0,027.1,020.0,22.3,0000.3,0017.92,0015.47,0015.06
2023-12-13 22:44:00,SystemResetWarning,0837.2,5.00,000.00,018.7,017.7,000.0,027.1,020.0,22.2,0000.4,0017.68,0015.42,0015.05
2023-12-13 22:45:00,SystemResetWarning,0837.3,5.00,000.00,018.7,017.7,000.0,027.1,020.0,22.2,0000.5,0017.71,0015.42,0015.05
2023-12-13 22:46:00,SystemResetWarning,0837.2,5.00,000.00,018.7,017.7,000.0,027.1,020.0,22.1,0000.7,0018.34,0015.41,0015.03
2023-12-13 22:47:00,SystemResetWarning,0837.2,5.00,000.00,018.7,017.7,000.0,027.1,020.0,22.1,0000.6,0018.33,0015.40,0015.01
2023-12-13 22:48:00,SystemResetWarning,0837.2,4.99,000.00,018.7,017.7,000.0,027.1,020.0,22.2,0000.8,0018.39,0015.41,0015.02
2023-12-13 22:49:00,SystemResetWarning,0837.2,5.00,000.00,018.7,017.7,000.0,027.1,020.0,22.2,0000.8,0018.43,0015.44,0015.03
2023-12-13 22:50:00,SystemResetWarning,0837.2,5.00,000.00,018.7,017.7,000.0,027.1,020.0,22.2,0000.9,0018.35,0015.42,0015.03
2023-12-13 22:51:00,SystemResetWarning,0837.2,5.00,000.00,018.7,017.7,000.0,027.1,020.0,22.3,0000.8,0018.35,0015.41,0015.00
2023-12-13 22:52:00,SystemResetWarning,0837.2,5.00,000.00,018.7,017.7,000.0,027.1,020.0,22.3,0000.9,0018.43,0015.44,0015.02
2023-12-13 22:53:00,SystemResetWarning,0837.2,5.00,000.00,018.7,017.8,000.0,027.1,020.0,22.2,0001.0,0018.37,0015.41,0015.01
2023-12-13 22:54:00,SystemResetWarning,0837.2,5.00,000.00,018.7,017.8,000.0,027.1,020.0,22.3,0000.9,0018.34,0015.37,0014.99
2023-12-13 22:55:00,SystemResetWarning,0837.2,5.00,000.00,018.7,017.8,000.0,027.1,020.0,22.5,0000.8,0018.37,0015.38,0014.98
2023-12-13 22:56:00,SystemResetWarning,0837.2,5.00,000.00,018.7,017.8,000.0,027.1,020.0,22.6,0000.8,0018.46,0015.37,0014.96
2023-12-13 22:57:00,SystemResetWarning,0837.2,5.00,000.00,018.7,017.8,000.0,027.1,020.0,22.8,0000.6,0018.08,0015.34,0014.94
2023-12-13 22:58:00,SystemResetWarning,0837.2,5.00,000.00,018.7,017.8,000.0,027.1,020.0,22.7,0000.6,0017.76,0015.32,0014.94
2023-12-13 22:59:00,SystemResetWarning,0837.2,5.00,000.00,018.8,017.8,000.0,027.1,020.0,22.7,0000.5,0017.71,0015.29,0014.92
